KAZSTSAT

Last updated on Mon Oct 27 2025 00:02:30 GMT+0000 (Coordinated Universal Time)

1 43783U 18099AB 25299.08065703 .00001070 00000+0 92509-4 0 9994 2 43783 97.4607 336.3175 0008266 101.0895 259.1259 14.99139626376227
UTC large
Height (km)
Speed (km/s)
/
Latitude / Longitude
Inclination (degrees)
Orbital Period (minutes)
Azimuth
Elevation
Range (km)
Doppler Factor

Next 0 passes for location: London (51.5072 / 0.1276)

Sorry there are no passes over London.